User: anonymous   Login
Location: Unspecified
(0.0000°N, 0.0000°E)
Time: 12:12:50
(UTC+00:00)
Language:

IGS 5A - Orbit

View from above orbital plane
View from above orbital plane
View from above satellite
View from above satellite

Ground track
Ground track

The orbit data is extracted from the following two-line orbital elements,

1 36104U 09066A   19270.90684779 0.00000000  00000-0  00000-0 0    07
2 36104  97.6215 336.1649 0004357 131.7244 228.2755 14.93725596    01
Epoch (UTC): 27 September 2019 21:45:51
Eccentricity: 0.0004357
inclination: 97.6215°
perigee height: 583 km
apogee height: 589 km
right ascension of ascending node: 336.1649°
argument of perigee: 131.7244°
revolutions per day: 14.93725596
mean anomaly at epoch: 228.2755°
orbit number at epoch: 0

The dashed part of the orbit path shows where the satellite is in the earth's shadow,  

DLR